Weather History for KENW - August, 2014

Change the Weather History Date:

Saturday, August 9, 2014

  Actual Average Record
Temperature  
Mean Temperature 68 °F -  
Max Temperature 75 °F 78 °F 97 °F (2001)
Min Temperature 62 °F 61 °F 47 °F (1972)
Cooling Degree Days 4    
Growing Degree Days 18 (Base 50)    
Moisture  
Dew Point 60 °F    
Average Humidity 75    
Maximum Humidity 97    
Minimum Humidity 46    
Precipitation  
Precipitation 0.00 in - - ()
Sea Level Pressure  
Sea Level Pressure 30.11 in    
Wind  
Wind Speed 8 mph (ENE)    
Max Wind Speed 15 mph    
Max Gust Speed -    
Visibility 9 miles    
Events      
Averages and records for this station are not official NWS values.
T = Trace of Precipitation, MM = Missing Value Source: NWS Daily Summary

Daily Weather History Graph

Daily Weather History Graph

Search for Another Location

Airport or City:

Trip Planner

Search our weather history database for the weather conditions in past years. The results will help you decide how hot, cold, wet, or windy it might be!

Date:

Astronomy

Aug. 09, 2014 Rise Set
Actual Time 5:52 AM CDT 8:01 PM CDT
Civil Twilight 5:20 AM CDT 8:32 PM CDT
Nautical Twilight 4:42 AM CDT 9:10 PM CDT
Astronomical Twilight 4:00 AM CDT 9:52 PM CDT
Moon 7:02 PM CDT (8/9) 4:32 AM CDT (8/9)
Length of Visible Light 15h 11m
Length of Day
14h 09m
Waxing Gibbous, 98% of the Moon is Illuminated
Aug 9
Waxing Gibbous
Aug 10
Full
Aug 17
Last Quarter
Aug 25
New
Sep 2
First Quarter

Hourly Weather History & Observations

Time (CDT) Temp. Dew Point Humidity Pressure Visibility Wind Dir Wind Speed Gust Speed Precip Events Conditions
12:53 AM 66.0 °F 60.1 °F 81% 30.10 in 10.0 mi East 8.1 mph - N/A   Clear
1:53 AM 66.9 °F 60.1 °F 79% 30.09 in 10.0 mi East 10.4 mph - N/A   Clear
2:53 AM 64.0 °F 61.0 °F 90% 30.09 in 10.0 mi East 8.1 mph - N/A   Clear
3:53 AM 62.1 °F 60.1 °F 93% 30.10 in 9.0 mi East 4.6 mph - N/A   Partly Cloudy
4:53 AM 62.1 °F 60.1 °F 93% 30.10 in 9.0 mi East 4.6 mph - N/A   Clear
5:53 AM 63.0 °F 62.1 °F 97% 30.11 in 7.0 mi ENE 6.9 mph - N/A   Clear
6:53 AM 63.0 °F 62.1 °F 97% 30.12 in 4.0 mi Calm Calm - N/A   Clear
7:53 AM 69.1 °F 64.9 °F 87% 30.12 in 8.0 mi East 8.1 mph - N/A   Clear
8:53 AM 71.1 °F 64.0 °F 78% 30.13 in 10.0 mi ENE 8.1 mph - N/A   Clear
9:53 AM 72.0 °F 64.0 °F 76% 30.14 in 10.0 mi ESE 6.9 mph - N/A   Partly Cloudy
10:53 AM 73.9 °F 63.0 °F 68% 30.14 in 10.0 mi ESE 9.2 mph - N/A   Partly Cloudy
12:53 PM 75.0 °F 59.0 °F 57% 30.13 in 10.0 mi East 9.2 mph - N/A   Clear
1:53 PM 75.0 °F 59.0 °F 57% 30.12 in 10.0 mi East 11.5 mph - N/A   Clear
2:53 PM 75.9 °F 55.9 °F 50% 30.12 in 10.0 mi East 15.0 mph - N/A   Clear
3:53 PM 75.9 °F 54.0 °F 46% 30.11 in 10.0 mi ENE 10.4 mph - N/A   Clear
4:53 PM 75.0 °F 55.9 °F 51% 30.10 in 10.0 mi ENE 9.2 mph - N/A   Clear
5:53 PM 73.9 °F 57.0 °F 55% 30.09 in 10.0 mi ENE 8.1 mph - N/A   Clear
6:53 PM 71.1 °F 57.0 °F 61% 30.08 in 10.0 mi NE 8.1 mph - N/A   Clear
7:53 PM 66.9 °F 59.0 °F 76% 30.09 in 10.0 mi NE 8.1 mph - N/A   Clear
8:53 PM 64.0 °F 60.1 °F 87% 30.11 in 10.0 mi NNE 4.6 mph - N/A   Clear
11:53 PM 64.0 °F 60.1 °F 87% 30.08 in 10.0 mi NNE 3.5 mph - N/A   Overcast